Location: The D'Auria's Ocala Star Observatory
(29.0276°N, 82.1742°W)
Time: 13:08:52
(UTC-05:00)

Daily predictions for brighter satellites

Satellite Brightness Start Highest point End
(mag) Time Altitude Azimuth Time Altitude Azimuth Time Altitude Azimuth
USA 215 3.3 17:47:12 10° SE 17:53:38 64° NE 18:00:04 10° NNW
Meteor 1-28 Rocket 3.2 17:50:29 10° NNE 17:54:14 77° E 17:57:59 10° S
Cosmos 1697 Rocket 4.3 17:51:46 10° SE 17:54:55 15° E 17:58:05 10° ENE
Cosmos 1455 Rocket 4.1 17:52:44 10° NNE 17:56:19 24° E 17:59:52 10° SE
YAOGAN 1 3.5 17:53:11 10° SE 17:56:49 27° ENE 18:00:28 10° NNE
Cosmos 1743 3.7 17:53:32 10° NNE 17:56:52 27° E 18:00:12 10° SE
Atlas Centaur 2 1.7 17:51:59 10° W 17:57:21 77° N 18:01:35 10° E
Cosmos 2279 Rocket 4.0 17:52:48 10° S 17:59:03 83° E 18:05:19 10° N
Okean 1 4.1 17:55:21 10° SSW 17:59:15 56° W 18:03:10 10° N
Cosmos 1544 Rocket 4.4 17:56:16 10° NNE 18:00:03 29° E 18:03:48 10° SE
OAO 1 Rocket 4.5 17:55:11 10° WSW 18:00:32 85° NNW 18:05:52 10° ENE
Cosmos 1607 4.2 17:54:16 10° NNW 18:00:35 53° ENE 18:06:47 10° SE
PSLV R/B 4.0 18:02:06 10° W 18:05:05 39° NNW 18:08:03 10° NE
MTI 4.3 18:02:30 10° NNE 18:05:35 40° E 18:08:38 10° S
BREEZE-M DEB (TANK) 4.3 18:03:42 10° N 18:06:50 24° NE 18:14:32 10° ESE
Ariane Rocket 3.1 18:08:28 10° SSE 18:13:30 85° WSW 18:18:35 10° NNW
ATLAS CENTAUR R/B 3.6 18:11:26 10° NW 18:15:05 31° WSW 18:18:57 10° S
COSMO-SKYMED 1 2.6 18:12:14 10° NNE 18:16:31 57° E 18:20:46 10° S
Cosmos 389 Rocket 2.4 18:14:51 10° N 18:18:18 61° E 18:21:41 10° SSE
Cosmos 1975 3.0 18:14:46 10° N 18:18:48 79° W 18:22:51 10° S
Landsat 4 3.7 18:15:43 10° NNE 18:19:33 86° ESE 18:23:20 10° SSW
USA 116 3.8 18:16:33 10° N 18:19:39 56° WNW 18:22:40 10° SSW
CZ-4 R/B 1.2 18:15:51 10° SSE 18:19:39 82° ENE 18:23:32 10° N
Cosmos 2227 Rocket 3.3 18:15:31 10° NNE 18:19:50 22° ENE 18:24:07 10° ESE
Cosmos 1484 Rocket 3.7 18:16:50 10° S 18:20:44 55° W 18:24:40 10° NNW
Cosmos 2219 3.1 18:15:33 10° NNW 18:21:09 67° ENE 18:26:43 10° SSE
Cosmos 1125 Rocket 3.7 18:17:22 10° S 18:22:30 53° ESE 18:27:39 10° NNE
ASTRO E2 3.9 18:19:49 10° W 18:23:36 40° SSW 18:27:23 10° SE
Cosmos 1271 Rocket 2.7 18:19:53 10° N 18:23:36 54° E 18:27:22 10° SSE
NOSS 8 (A) 4.3 18:22:26 10° SSW 18:26:05 89° ESE 18:28:52 13° NNE
SJ 16-02 1.5 18:23:38 10° S 18:27:53 52° E 18:32:08 10° NNE
Lacrosse 5 4.2 18:25:09 10° WNW 18:29:22 27° WSW 18:33:34 10° S
Meteor 2-9 Rocket 4.5 18:25:19 10° N 18:30:29 41° E 18:35:31 10° SSE
Cosmos 1980 Rocket 3.5 18:29:58 10° SE 18:33:54 20° E 18:35:11 18° E
Okean 2 4.5 18:32:24 10° SE 18:35:44 24° E 18:36:32 23° ENE
ERS-2 2.4 18:32:30 10° SSE 18:35:59 43° ENE 18:39:28 10° N
Meteor 1-13 Rocket 4.5 18:31:39 10° SSW 18:37:09 71° W 18:42:46 10° N
CZ-4 R/B 4.4 18:37:35 10° S 18:41:44 85° W 18:45:53 10° NNW
Cosmos 2297 Rocket 2.8 18:42:19 10° N 18:47:21 32° ENE 18:52:21 10° SE
Meteor 2-4 Rocket 3.8 18:42:39 10° SSW 18:48:10 74° W 18:53:36 10° N
Cosmos 1536 Rocket 4.0 18:44:37 10° SSW 18:48:57 63° W 18:53:16 10° N
USA 238 DEB 4.2 18:42:42 10° NNW 18:49:20 40° NE 18:55:59 10° ESE
USA 238 4.2 18:42:49 10° NNW 18:49:25 39° NE 18:56:04 10° ESE
Cosmos 1666 3.9 18:53:35 10° NNW 18:57:09 42° W 19:00:41 10° SSW
Cosmos 372 Rocket 4.3 18:52:45 10° SSW 18:57:58 69° WNW 19:03:08 10° N
Cosmos 1025 Rocket 3.1 18:54:14 10° SSE 18:58:24 50° E 18:59:38 37° NE
ALOS 2.1 18:54:05 10° SSE 18:58:44 76° ENE 19:03:23 10° N
GOES 2 Rocket 3.4 18:57:17 10° W 19:01:58 83° S 19:04:19 36° E
Cosmos 2266 Rocket 3.9 19:01:23 10° N 19:07:30 86° W 19:13:41 10° S
Cosmos 1656 4.1 19:02:08 10° SSW 19:07:41 62° WNW 19:12:27 14° N
Hubble Space Telescope 0.7 19:03:50 10° W 19:08:00 83° S 19:08:42 60° ESE
Cosmos 2369 4.4 19:02:42 10° SW 19:08:10 52° WNW 19:13:40 10° N
Cosmos 2278 4.4 19:04:53 10° SW 19:10:24 53° WNW 19:15:39 11° N
Cosmos 468 4.4 19:11:30 10° NNW 19:16:50 87° ENE 19:22:07 10° SSE
SPOT 3 Rocket 3.8 19:13:21 10° S 19:18:31 68° WSW 19:23:40 10° NNW
Skynet4D Del rocket 3.7 19:14:52 10° WSW 19:20:35 66° S 19:21:48 51° ESE
NOSS 3-2 (A) 4.4 19:13:50 10° NNW 19:21:02 40° NE 19:21:35 39° ENE
FengYun 1-2 T 4.1 19:25:16 10° SSE 19:30:48 72° ENE 19:36:25 10° N
Cosmos 2084 3.8 19:29:12 10° SSW 19:32:42 58° SW 19:32:42 58° SW
Cosmos 1244 Rocket 4.3 19:30:39 10° N 19:36:46 70° E 19:42:54 10° SSE
Cosmos 1697 Rocket 3.4 19:32:52 10° SW 19:38:21 51° WNW 19:41:03 28° N
Thor Agena Rocket 3.8 19:38:34 42° N 19:40:16 68° WNW 19:45:29 10° SSW
ATLAS 3B R/B 2.4 19:36:00 10° NNW 19:42:35 88° WSW 19:45:49 32° SSE
Atlas Centaur 2 2.6 19:41:47 10° W 19:44:41 38° W 19:44:41 38° W
NOSS 3-4 (A) 4.1 19:40:54 10° SW 19:46:54 51° WNW 19:49:05 36° N
NOSS 3-4 (C) 4.1 19:40:59 10° SW 19:46:59 52° WNW 19:49:08 36° N
Cosmos 2082 3.8 19:43:29 10° NNW 19:49:05 72° WSW 19:51:46 31° S
Cosmos 1553 Rocket 3.9 19:44:52 10° S 19:51:16 86° E 19:51:26 84° NE
Cosmos 1417 Rocket 4.5 19:47:39 10° S 19:53:45 76° W 19:54:50 61° NNW
Cosmos 2227 Rocket 3.5 19:58:44 10° NW 20:03:55 38° WSW 20:09:04 10° S
Cosmos 1980 Rocket 3.3 20:12:13 10° SW 20:17:02 40° W 20:17:02 40° W
Cosmos 2344 4.0 20:11:58 10° SSW 20:17:31 48° S 20:17:31 48° S
Cosmos 2297 Rocket 4.1 20:26:37 10° NW 20:31:08 25° WSW 20:35:39 10° SSW
CZ-3A R/B 4.2 20:28:15 10° WSW 20:42:05 47° SW 20:42:05 47° SW
